Regional Weather Roundup
Issued by NWS

Home | Current Version | Previous Version | Text Only | Print | Product List | Glossary Off
Versions: 1 2 3 4 5 6 7 8 9 10 11 12 13 14 15 16 17 18 19 20 21 22 23 24 25 26 27 28 29 30 31 32 33 34 35 36 37 38 39 40 41 42 43 44 45 46 47 48 49 50

000
ASUS43 KMPX 240610
RWRMN
WEATHER ROUNDUP FOR MINNESOTA
NATIONAL WEATHER SERVICE TWIN CITIES/CHANHASSEN MN
100 AM CDT TUE MAY 24 2016


NOTE: "FAIR" INDICATES FEW OR NO CLOUDS BELOW 12,000 FEET WITH NO
SIGNIFICANT WEATHER AND/OR OBSTRUCTIONS TO VISIBILITY. N/A MEANS
CURRENT SKY AND/OR WEATHER CONDITIONS ARE NOT AVAILABLE.

MNZ060>063-068>070-240700-
   Twin Cities Metro

CITY           SKY/WX    TMP DP  RH WIND       PRES   REMARKS
TWIN CITIES    CLOUDY    66  60  81 SE9       29.80F
6HR MIN TEMP:  66; 6HR MAX TEMP:  75; 6HR PCP: TRACE;

ST PAUL        CLOUDY    65  61  87 SE5       29.81F
CRYSTAL        CLOUDY    64  60  87 E9        29.77F
BLAINE         MOCLDY    64  64 100 S7        29.80S
EDEN PRAIRIE   CLOUDY    66  60  81 E10       29.78F
6HR MIN TEMP:  65; 6HR MAX TEMP:  76; 6HR PCP:  0.01;

SOUTH ST PAUL  MOCLDY    65  62  88 S5        29.81S
LAKE ELMO      MOCLDY    64  61  88 E6        29.82F
$$
MNZ001>005-007-008-013>017-022>024-027-028-240700-
   Northwest Minnesota

CITY           SKY/WX    TMP DP  RH WIND       PRES   REMARKS
BEMIDJI        CLOUDY    63  55  76 CALM      29.75S
HALLOCK        PTCLDY    64  46  52 S12       29.71S
ROSEAU         CLOUDY    64  46  52 CALM      29.73S
WARROAD        CLOUDY    59  52  77 CALM      29.73F
THIEF RVR FALL CLOUDY    61  46  59 N8        29.77R
CROOKSTON      PTCLDY    63  50  63 NE6       29.74S
FOSSTON          N/A     61  54  77 CALM      29.74S
DETROIT LAKES  LGT RAIN  61  54  77 E6        29.76S
MOORHEAD       CLOUDY    63  54  72 CALM      29.72S
PARK RAPIDS    CLOUDY    66  59  78 E6        29.75F
MAHNOMEN       MOCLDY    62  53  71 SE12      29.74S
$$
MNZ006-009>011-018-025>026-240700-
   North Central Minnesota

CITY           SKY/WX    TMP DP  RH WIND       PRES   REMARKS
BAUDETTE       CLOUDY    54  50  86 E3        29.73S
FLAG ISLAND    CLOUDY    63  48  59 S3        29.72R
INTL FALLS     CLOUDY    51  51 100 CALM      29.75R FOG
6HR MIN TEMP:  51; 6HR MAX TEMP:  70;

WASKISH        CLOUDY    55  54  94 CALM      29.75S
BIG FORK       CLOUDY    55  54  94 CALM      29.76F
LONGVILLE      CLOUDY    63  61  94 CALM      29.77R
GRAND RAPIDS     N/A    N/A N/A N/A MISG        N/A
CRANE LAKE     CLOUDY    55  55 100 CALM      29.79R FOG
ORR            CLOUDY    61  57  88 CALM      29.75R
COOK           CLOUDY    61  57  88 CALM      29.78R
WALKER         MOCLDY    62  61  95 CALM      29.75F THUNDER
$$
MNZ012-019>021-037-240700-
   Northeast Minnesota

CITY           SKY/WX    TMP DP  RH WIND       PRES   REMARKS
DULUTH         CLOUDY    61  59  93 S6        29.79S
6HR MIN TEMP:  61; 6HR MAX TEMP:  72; 6HR PCP:  0.15;

ELY            DRIZZLE   59  57  94 S5        29.80R
HIBBING        CLOUDY    60  58  92 SE3       29.78R
EVELETH        CLOUDY    63  59  88 SE3       29.80S
DULUTH HARBOR  LGT RAIN  61  61 100 S5        29.78F
TWO HARBORS    MOCLDY    63  57  82 W3        29.77F
SILVER BAY     CLOUDY    63  61  94 SW3       29.77F
GRAND MARAIS     N/A     48  47  96 W3        29.79R
G MARAIS ARPRT LGT RAIN  59  55  88 CALM      29.82R
$$
MNZ029>031-032-039>041-046>048-054>057-064-240700-
   West Central Minnesota

CITY           SKY/WX    TMP DP  RH WIND       PRES   REMARKS
FERGUS FALLS   MOCLDY    64  55  72 S7        29.70S
WHEATON        CLOUDY    64  55  72 S5        29.75R
MORRIS         PTCLDY    63  54  72 S3        29.74R
ALEXANDRIA     LGT RAIN  63  61  93 S3        29.76S
ELBOW LAKE     FAIR      60  57  90 S6        29.74S
WADENA         CLOUDY    63  61  94 CALM      29.74S
GLENWOOD       CLOUDY    61  61 100 SW5       29.76S
APPLETON       CLOUDY    63  57  82 S5        29.74S
BENSON         PTCLDY    63  57  82 CALM      29.75S
ORTONVILLE     MOCLDY    64  55  72 S3        29.74S
MADISON        CLOUDY    61  55  82 S5        29.75S
WILLMAR        FAIR      64  61  88 SW3       29.77R
$$
MNZ033>034-036-042>043-049>051-058-059-240700-
   Central Minnesota

CITY           SKY/WX    TMP DP  RH WIND       PRES   REMARKS
ST CLOUD       CLOUDY    62  61  96 S7        29.76S
6HR MIN TEMP:  62; 6HR MAX TEMP:  67; 6HR PCP:  0.09;

SAUK CENTRE    FAIR      61  59  94 S7        29.76R
PAYNESVILLE    MOCLDY    62  61  97 SE12G17   29.77R
AITKIN         CLOUDY    64  57  77 S5        29.75F
PINE RIVER     CLOUDY    61  61 100 CALM      29.79S
BRAINERD       CLOUDY    60  60 100 CALM      29.76S FOG
STAPLES        CLOUDY    61  61 100 S5        29.74F
LONG PRAIRIE   FAIR      59  59 100 S3        29.76S
LITTLE FALLS   PTCLDY    59  57  94 CALM      29.76F
LITCHFIELD     MOCLDY    64  64 100 SE3       29.78R
BUFFALO        CLOUDY    62  60  93 SE5       29.79S
MAPLE LAKE     CLOUDY    63  63  98 SE5       29.79S
HUTCHINSON     PTCLDY    65  63  93 SE5       29.80R
$$
MNZ037-044-045-052-053-240700-
   East Central Minnesota

CITY           SKY/WX    TMP DP  RH WIND       PRES   REMARKS
PRINCETON      CLOUDY    63  61  94 SE9       29.77S
MORA           CLOUDY    59  55  88 CALM      29.79R
CAMBRIDGE      PTCLDY    63  55  77 SE7       29.77R
RUSH CITY      CLOUDY    61  58  92 SE3       29.79R
MOOSE LAKE     CLOUDY    61  59  94 SE3       29.76F
HINCKLEY       FAIR      61  61 100 CALM      29.79S
CLOQUET        CLOUDY    61  57  88 CALM      29.78F
MCGREGOR         N/A     59  57  94 CALM      29.77F
$$
MNZ071>073-080-081-089-090-097-098-240700-
   Southwest Minnesota

CITY           SKY/WX    TMP DP  RH WIND       PRES   REMARKS
MONTEVIDEO     PTCLDY    63  59  88 W6        29.77S
GRANITE FALLS  PTCLDY    65  62  90 S8        29.78R
CANBY          CLOUDY    67  61  80 SW7       29.77R
MARSHALL       CLOUDY    65  61  87 SW12      29.78R
REDWOOD FALLS  CLOUDY    63  60  90 S8        29.77R
OLIVIA         CLOUDY    59  55  88 S5        29.76S
PIPESTONE      CLOUDY    63  61  94 SW5       29.79S FOG
WINDOM         PTCLDY    64  61  88 CALM      29.80S
WORTHINGTON    CLOUDY    63  61  93 S10       29.80F
JACKSON        CLOUDY    64  61  88 S12       29.81F
TRACY          CLOUDY    64  63  94 SW12      29.78R
SLAYTON        CLOUDY    62  62  99 SW8       29.80S FOG
$$
MNZ065>067-074>077-082>085-091>093-240700-
   South Central Minnesota

CITY           SKY/WX    TMP DP  RH WIND       PRES   REMARKS
MANKATO        CLOUDY    66  61  82 S7        29.82S
NEW ULM        MOCLDY    66  63  88 SE6       29.80R
ST JAMES       CLOUDY    61  57  88 S6        29.81S
FAIRMONT       CLOUDY    64  61  88 S14       29.81S
GLENCOE        MOCLDY    64  64 100 SE5       29.79S
FARIBAULT      CLOUDY    66  61  82 S3        29.83S
OWATONNA       CLOUDY    66  59  77 S12       29.84S
WASECA         CLOUDY    64  57  77 S9        29.85S
ALBERT LEA     CLOUDY    66  61  82 S7        29.84R
$$
MNZ078>079-086>088-094>096-240700-
   Southeast Minnesota

CITY           SKY/WX    TMP DP  RH WIND       PRES   REMARKS
ROCHESTER      CLOUDY    66  62  87 S13       29.83F
6HR MIN TEMP:  64; 6HR MAX TEMP:  66;

RED WING       LGT RAIN  64  63  94 CALM      29.83R
STANTON        LGT RAIN  66  61  83 CALM      29.82S
DODGE CENTER   RAIN      64  61  88 SW12      29.86R
WINONA         CLOUDY    66  61  82 SE3       29.85S
AUSTIN         CLOUDY    64  61  88 S6        29.85R
PRESTON        CLOUDY    63  60  91 SW3       29.87S
$$
ABBREVIATIONS USED IN REMARKS
   TC - TEMPERATURES IN CELSIUS
  WCI - WIND CHILL INDEX
   HX - HEAT INDEX
  VSB - VISIBILITY
$$



USA.gov is the U.S. government's official web portal to all federal, state and local government web resources and services.